Total_Precipitation_Accumulation
0.06 0.08 0.24 0.33 0.36 0.36 0.36 0.37 0.34 0.32 0.33 0.35 0.36 0.35 0.33 0.34 0.35 0.36 0.40 0.43 0.45 0.43 0.46 0.54 0.56 0.57 0.56 0.53 0.53 0.52 0.46 0.43 0.43 0.43 0.48 0.53 0.49 0.40 0.34 0.31 0.27 0.33 0.40
0.04 0.06 0.17 0.24 0.29 0.33 0.33 0.33 0.30 0.26 0.27 0.29 0.28 0.28 0.28 0.29 0.31 0.33 0.38 0.45 0.48 0.44 0.45 0.51 0.57 0.56 0.54 0.53 0.54 0.49 0.38 0.30 0.26 0.24 0.25 0.33 0.39 0.39 0.35 0.32 0.32 0.44 0.47
0.03 0.04 0.11 0.19 0.24 0.29 0.30 0.29 0.26 0.23 0.22 0.24 0.24 0.25 0.25 0.27 0.30 0.32 0.38 0.41 0.44 0.48 0.48 0.49 0.61 0.63 0.63 0.60 0.56 0.48 0.38 0.25 0.17 0.15 0.14 0.24 0.36 0.43 0.40 0.35 0.34 0.38 0.42
0.01 0.03 0.05 0.15 0.22 0.27 0.29 0.28 0.25 0.23 0.21 0.21 0.22 0.25 0.26 0.27 0.29 0.33 0.39 0.42 0.45 0.55 0.58 0.62 0.68 0.67 0.63 0.55 0.51 0.44 0.40 0.26 0.14 0.11 0.10 0.21 0.38 0.48 0.43 0.39 0.34 0.35 0.38
0.01 0.02 0.05 0.14 0.21 0.26 0.28 0.29 0.27 0.23 0.20 0.21 0.23 0.25 0.28 0.29 0.30 0.31 0.34 0.40 0.46 0.56 0.56 0.56 0.61 0.60 0.57 0.52 0.46 0.47 0.49 0.34 0.18 0.08 0.07 0.15 0.31 0.51 0.47 0.44 0.37 0.33 0.35
0.00 0.01 0.04 0.13 0.22 0.24 0.28 0.32 0.33 0.27 0.24 0.23 0.24 0.25 0.27 0.32 0.31 0.31 0.30 0.31 0.35 0.42 0.44 0.48 0.52 0.52 0.51 0.47 0.40 0.44 0.52 0.44 0.20 0.07 0.09 0.13 0.25 0.45 0.47 0.46 0.40 0.35 0.32
0.00 0.01 0.04 0.13 0.22 0.24 0.26 0.31 0.33 0.28 0.26 0.25 0.27 0.29 0.30 0.31 0.32 0.30 0.26 0.26 0.25 0.28 0.33 0.41 0.48 0.52 0.52 0.46 0.41 0.44 0.50 0.40 0.17 0.15 0.16 0.17 0.23 0.33 0.48 0.51 0.45 0.41 0.37
0.01 0.02 0.04 0.14 0.23 0.25 0.26 0.29 0.36 0.33 0.29 0.28 0.30 0.32 0.34 0.36 0.37 0.36 0.30 0.25 0.23 0.23 0.25 0.31 0.42 0.58 0.57 0.45 0.43 0.48 0.46 0.27 0.12 0.12 0.16 0.20 0.24 0.39 0.70 0.79 0.59 0.48 0.44
0.01 0.02 0.05 0.13 0.19 0.25 0.26 0.29 0.35 0.34 0.33 0.33 0.34 0.35 0.35 0.36 0.37 0.38 0.36 0.32 0.31 0.29 0.27 0.28 0.36 0.54 0.55 0.48 0.49 0.51 0.37 0.17 0.09 0.15 0.14 0.23 0.22 0.45 0.82 0.92 0.79 0.62 0.52
0.02 0.04 0.06 0.12 0.17 0.21 0.25 0.28 0.32 0.33 0.34 0.35 0.35 0.34 0.30 0.31 0.34 0.33 0.30 0.28 0.30 0.32 0.30 0.28 0.30 0.41 0.47 0.47 0.54 0.48 0.24 0.12 0.07 0.11 0.21 0.20 0.19 0.47 0.88 0.98 0.91 0.77 0.63
0.04 0.05 0.07 0.13 0.17 0.21 0.24 0.25 0.28 0.30 0.30 0.32 0.32 0.28 0.28 0.28 0.29 0.28 0.23 0.22 0.27 0.30 0.31 0.32 0.32 0.37 0.41 0.39 0.44 0.34 0.16 0.09 0.08 0.12 0.20 0.18 0.21 0.45 0.85 1.02 0.96 0.88 0.80
0.05 0.06 0.08 0.13 0.17 0.21 0.22 0.24 0.28 0.28 0.25 0.24 0.23 0.25 0.27 0.30 0.31 0.29 0.25 0.23 0.27 0.28 0.31 0.36 0.40 0.39 0.36 0.33 0.44 0.35 0.18 0.13 0.12 0.08 0.12 0.12 0.24 0.46 0.73 0.93 1.02 0.96 0.91
0.06 0.08 0.12 0.18 0.21 0.23 0.24 0.25 0.28 0.29 0.28 0.27 0.26 0.27 0.33 0.36 0.36 0.34 0.32 0.29 0.28 0.27 0.29 0.33 0.38 0.35 0.38 0.51 0.66 0.52 0.35 0.28 0.18 0.10 0.07 0.08 0.20 0.38 0.60 0.78 0.98 1.09 1.08
0.07 0.09 0.13 0.18 0.23 0.26 0.29 0.31 0.27 0.26 0.25 0.25 0.27 0.26 0.29 0.31 0.30 0.29 0.27 0.27 0.28 0.28 0.29 0.30 0.31 0.34 0.37 0.44 0.50 0.45 0.36 0.31 0.22 0.17 0.11 0.09 0.13 0.22 0.39 0.58 0.80 1.06 1.16
0.07 0.09 0.12 0.15 0.19 0.23 0.28 0.33 0.31 0.28 0.24 0.22 0.22 0.22 0.21 0.22 0.23 0.24 0.22 0.22 0.22 0.23 0.25 0.26 0.25 0.27 0.31 0.33 0.33 0.33 0.32 0.28 0.23 0.21 0.18 0.15 0.13 0.15 0.26 0.42 0.58 0.84 1.12
0.07 0.09 0.10 0.13 0.15 0.20 0.23 0.26 0.31 0.33 0.31 0.28 0.24 0.22 0.21 0.19 0.18 0.18 0.18 0.18 0.17 0.18 0.19 0.22 0.23 0.24 0.25 0.27 0.26 0.25 0.24 0.22 0.21 0.22 0.21 0.19 0.17 0.16 0.23 0.35 0.48 0.62 0.90
0.07 0.08 0.10 0.13 0.14 0.18 0.20 0.22 0.25 0.30 0.33 0.31 0.26 0.23 0.22 0.20 0.18 0.17 0.17 0.17 0.16 0.18 0.22 0.27 0.30 0.32 0.32 0.32 0.29 0.29 0.27 0.25 0.23 0.25 0.26 0.25 0.24 0.22 0.24 0.36 0.46 0.53 0.71
0.06 0.08 0.11 0.13 0.14 0.17 0.21 0.25 0.26 0.28 0.30 0.28 0.27 0.26 0.25 0.24 0.22 0.22 0.20 0.19 0.18 0.20 0.25 0.31 0.36 0.37 0.36 0.37 0.35 0.36 0.37 0.36 0.31 0.31 0.33 0.30 0.29 0.27 0.26 0.32 0.43 0.51 0.66
0.06 0.07 0.10 0.13 0.14 0.17 0.22 0.28 0.26 0.29 0.33 0.31 0.30 0.30 0.29 0.30 0.29 0.28 0.25 0.23 0.23 0.25 0.28 0.32 0.34 0.37 0.38 0.40 0.42 0.42 0.44 0.45 0.42 0.37 0.33 0.31 0.30 0.28 0.29 0.31 0.36 0.42 0.57
0.07 0.08 0.09 0.13 0.16 0.17 0.21 0.30 0.33 0.31 0.33 0.33 0.30 0.28 0.30 0.32 0.33 0.33 0.31 0.29 0.29 0.31 0.32 0.34 0.36 0.38 0.39 0.43 0.48 0.46 0.48 0.47 0.46 0.42 0.38 0.39 0.37 0.31 0.29 0.30 0.33 0.34 0.39
0.06 0.09 0.10 0.11 0.17 0.20 0.21 0.26 0.30 0.27 0.28 0.31 0.30 0.28 0.29 0.31 0.32 0.32 0.32 0.32 0.32 0.31 0.32 0.35 0.35 0.35 0.35 0.38 0.44 0.40 0.37 0.38 0.39 0.37 0.34 0.37 0.39 0.42 0.41 0.37 0.35 0.35 0.36
0.04 0.07 0.10 0.10 0.13 0.19 0.19 0.20 0.25 0.25 0.27 0.29 0.30 0.31 0.32 0.32 0.31 0.31 0.31 0.33 0.34 0.34 0.31 0.30 0.33 0.36 0.34 0.34 0.43 0.46 0.40 0.35 0.32 0.29 0.28 0.31 0.36 0.42 0.45 0.47 0.46 0.43 0.40
0.05 0.06 0.09 0.10 0.11 0.16 0.22 0.24 0.29 0.33 0.31 0.33 0.32 0.31 0.32 0.32 0.32 0.32 0.31 0.32 0.33 0.36 0.36 0.31 0.31 0.36 0.37 0.35 0.39 0.55 0.62 0.45 0.32 0.25 0.25 0.27 0.29 0.30 0.32 0.36 0.41 0.45 0.46
0.07 0.08 0.10 0.13 0.12 0.13 0.19 0.28 0.31 0.33 0.30 0.25 0.25 0.27 0.30 0.31 0.31 0.31 0.32 0.33 0.35 0.36 0.37 0.39 0.35 0.36 0.39 0.39 0.38 0.40 0.47 0.49 0.56 0.40 0.19 0.17 0.20 0.22 0.24 0.25 0.28 0.32 0.38
0.06 0.08 0.09 0.14 0.16 0.14 0.15 0.20 0.28 0.32 0.32 0.32 0.31 0.31 0.33 0.34 0.33 0.33 0.31 0.32 0.34 0.34 0.35 0.37 0.39 0.41 0.41 0.41 0.43 0.41 0.37 0.35 0.43 0.60 0.36 0.17 0.15 0.15 0.18 0.22 0.26 0.30 0.34
0.04 0.06 0.09 0.12 0.16 0.16 0.18 0.19 0.25 0.30 0.34 0.38 0.41 0.38 0.35 0.35 0.35 0.35 0.34 0.33 0.35 0.35 0.33 0.35 0.37 0.38 0.39 0.40 0.41 0.43 0.46 0.48 0.43 0.52 0.50 0.29 0.21 0.16 0.16 0.19 0.23 0.29 0.36